#timestamp,LO_Frequency,Hit,StdDev 
1459065615.7,286047004.5,N
1459065635.5,286047007.3,N
1459065655.3,286047007.2,N
1459065675.2,286047004.6,N
1459065695.9,286047005.2,N
1459065715.7,286047003.9,N
1459065735.6,286047004.9,N
1459065755.4,286047009.2,N
1459065775.2,286047004.0,N
1459065795.1,286047006.0,N
1459065796.0,286047006.0,N
1459065815.8,286047000.9,N
1459065835.6,286047000.6,N
1459065855.5,286047001.4,N
1459065875.3,286047008.4,N
1459065895.1,286047008.6,N
1459065915.8,286047005.5,N
1459065935.7,286047002.5,N
1459065955.5,286047006.9,N
1459065975.3,286047010.6,Y
1459065995.2,286047007.2,P
1459066015.0,286047007.0,P
1459066015.9,286047007.0,P
1459066035.8,286047003.0,Y
1459066055.6,286046996.0,P
1459066075.4,286046993.7,N
1459066095.2,286046997.1,N
1459066115.1,286046995.0,N
1459066116.0,286046995.0,N
1459066135.8,286046997.4,N
1459066155.6,286046999.1,N
1459066175.5,286046997.9,N
1459066195.3,286046992.2,N
1459066215.1,286046991.0,N
1459066235.9,286046995.5,N
1459066255.7,286046995.5,N
1459066275.5,286046996.4,N
1459066295.4,286046997.8,N
1459066315.2,286047001.7,N
1459066335.0,286047002.2,N
1459066335.9,286047002.2,N
1459066355.8,286046997.3,N
1459066375.6,286046999.1,N
1459066395.4,286046998.1,N
1459066415.2,286046996.6,N
1459066435.1,286047000.7,N
1459066436.0,286047000.7,N
1459066455.8,286047002.5,N
1459066475.6,286046998.5,N
1459066495.5,286046998.2,N
1459066515.3,286046969.5,Y
1459066535.1,286046940.5,P
1459066555.9,286046921.0,N
1459066575.7,286046902.1,N
1459066595.5,286046891.6,Y
1459066615.4,286046943.2,P
1459066635.2,286046931.7,P
1459066655.0,286046921.8,P
1459066656.0,286046921.8,Y
1459066675.8,286046981.6,P
1459066695.6,286046973.8,N
1459066715.4,286046969.2,N
1459066735.3,286046962.6,N
1459066755.1,286046953.7,N
1459066775.8,286046948.9,Y
1459066795.7,286046980.8,P
1459066815.5,286046979.6,N
1459066835.3,286046976.1,N
1459066855.2,286046967.7,Y
1459066875.0,286046993.1,P
1459066875.9,286046993.1,N
1459066895.7,286046989.0,N
1459066915.6,286046983.7,N
1459066935.4,286046980.8,N
1459066955.2,286046979.6,Y
1459066975.1,286046990.4,P
1459066976.0,286046990.4,P
1459066995.8,286046988.3,P
1459067015.6,286046981.3,Y
1459067035.5,286046990.7,P
1459067055.3,286046992.5,P
1459067075.1,286046991.1,P
1459067095.9,286046988.5,Y
1459067115.7,286046998.1,P
1459067135.5,286046997.8,N
1459067155.4,286046993.5,N
1459067175.2,286046992.5,N
1459067195.0,286046990.2,Y
1459067196.0,286046990.2,P
1459067215.8,286046997.6,N
1459067235.6,286046993.4,N
1459067255.4,286046994.1,N
1459067275.3,286046991.8,Y
1459067295.1,286046995.9,P
1459067315.8,286046993.9,P
1459067335.7,286046992.8,P
1459067355.5,286046988.7,Y
1459067375.3,286046995.9,P
1459067395.2,286046996.1,P
1459067415.0,286046991.9,P
1459067415.9,286046991.9,Y
1459067435.8,286046999.3,P
1459067455.6,286047000.8,N
1459067475.4,286046997.2,N
1459067495.2,286046994.9,N
1459067515.1,286047000.2,N
1459067516.0,286047000.2,N
1459067535.8,286047042.2,Y
1459067555.6,286047064.9,P
1459067575.5,286047044.7,N
1459067595.3,286047035.9,N
1459067615.1,286047025.8,N
1459067635.9,286047023.5,N
1459067655.7,286047015.8,N
1459067675.5,286047010.0,N
1459067695.4,286047007.4,N
1459067715.2,286047002.2,N
1459067735.0,286046998.1,N
1459067735.9,286046998.1,N
1459067755.8,286046996.9,N
1459067775.6,286046995.0,N
1459067795.4,286046992.0,N
1459067815.2,286046988.9,N
1459067835.1,286046988.4,N
1459067836.0,286046988.4,N
1459067855.8,286046986.6,N
1459067875.6,286046982.3,N
1459067895.5,286046980.7,N
1459067915.3,286046980.7,N
1459067935.1,286046981.0,N
1459067955.9,286046981.4,N
1459067975.7,286046983.2,N
1459067995.5,286046981.8,N
1459068015.4,286046983.1,N
1459068035.2,286046978.9,N
1459068055.0,286046980.3,N
1459068055.9,286046980.3,N
1459068075.8,286046980.4,N
1459068095.6,286046976.0,N
1459068115.4,286046978.5,N
1459068135.3,286046975.2,N
1459068155.1,286046969.7,N
1459068156.0,286046969.7,N
1459068175.8,286046967.0,N
1459068195.7,286046967.1,Y
1459068215.5,286046981.9,P
1459068235.3,286046978.8,P
1459068255.2,286046976.3,P
1459068275.9,286046976.4,Y
1459068295.7,286046996.3,P
1459068315.6,286046995.3,N
1459068335.4,286046992.1,N
1459068355.2,286046988.7,N
1459068375.0,286046991.3,N
1459068376.0,286046991.3,N
1459068395.8,286046991.9,N
1459068415.6,286046991.5,N
1459068435.4,286046987.6,N
1459068455.3,286046984.9,Y
1459068475.1,286046997.2,P
1459068495.8,286046997.3,N
1459068515.7,286046995.3,N
1459068535.5,286046992.3,N
1459068555.3,286046996.4,N
1459068575.2,286046995.9,N
1459068595.9,286046993.7,N
1459068615.7,286046994.7,N
1459068635.6,286046996.3,N
1459068655.4,286046996.3,N
1459068675.2,286046999.6,N
1459068695.1,286046999.0,N
1459068696.0,286046999.0,N
1459068715.8,286046995.3,N
1459068735.6,286046992.7,Y
1459068755.5,286046997.6,P
1459068775.3,286046995.4,P
1459068795.1,286046995.3,P
1459068815.9,286046995.4,Y
1459068835.7,286047002.3,P
1459068855.5,286047003.7,N
1459068875.4,286047002.7,N
1459068895.2,286047002.3,N
1459068915.0,286047000.7,N
1459068915.9,286047000.7,N
1459068935.8,286047002.8,N
1459068955.6,286047001.7,N
1459068975.4,286047001.8,N
1459068995.3,286047001.6,N
1459069015.1,286047004.2,N
1459069016.0,286047004.2,N
1459069035.8,286047001.5,N
1459069055.7,286047005.9,Y
1459069075.5,286047004.1,P
1459069095.3,286047003.1,N
1459069115.2,286047002.2,N
1459069135.9,286047002.6,N
1459069155.7,286047001.6,N
1459069175.6,286047002.7,Y
1459069195.4,286046999.3,P
